[Iaude] MPEC W45: 2016 WO1 [a=2.26,e=0.60,i=14.8,H=19.8]

mpec at si.edu mpec at si.edu
Tue Nov 22 07:01:55 EST 2016


M.P.E.C. 2016-W45                                Issued 2016 Nov. 22, 11:58 UT
 
     The Minor Planet Electronic Circulars contain information on unusual
         minor planets and routine data on comets.  They are published
    on behalf of Division F of the International Astronomical Union by the
          Minor Planet Center, Smithsonian Astrophysical Observatory,
                          Cambridge, MA 02138, U.S.A.

             Prepared using the Tamkin Foundation Computer Network

                              MPC at CFA.HARVARD.EDU
            URL http://www.minorplanetcenter.net/    ISSN 1523-6714


                                   2016 WO1
 
Observations:
     K16W01O  C2016 10 12.58072 03 58 28.757+09 18 11.22         22.3 wLEW045F51
     K16W01O  C2016 10 12.59235 03 58 28.635+09 18 12.70         22.2 wLEW045F51
     K16W01O  C2016 10 12.60393 03 58 28.517+09 18 14.22         22.1 wLEW045F51
     K16W01O  C2016 10 12.61555 03 58 28.401+09 18 15.79         22.5 wLEW045F51
     K16W01O* C2016 11 19.38058 03 13 23.16 +12 56 18.3          19.4 VqEW045G96
     K16W01O  C2016 11 19.38883 03 13 21.93 +12 56 23.6          19.8 VqEW045G96
     K16W01O  C2016 11 19.39332 03 13 21.23 +12 56 26.9          19.7 VqEW045G96
     K16W01O  C2016 11 19.39770 03 13 20.55 +12 56 30.3          19.6 VqEW045G96
     K16W01O  C2016 11 19.41562303 13 17.88 +12 56 40.9          19.3 VUEW045H01
     K16W01O  C2016 11 19.41894003 13 17.39 +12 56 43.2          19.3 VUEW045H01
     K16W01O  C2016 11 19.41956 03 13 17.32 +12 56 44.6          19.3 VqEW045G96
     K16W01O  C2016 11 19.42247 03 13 16.88 +12 56 45.8          19.1 VqEW045G96
     K16W01O  C2016 11 19.42546 03 13 16.47 +12 56 48.6          19.4 VqEW045G96
     K16W01O  C2016 11 19.42883 03 13 15.94 +12 56 50.3          19.5 VqEW045G96
     K16W01O  C2016 11 19.42900203 13 15.89 +12 56 50.0          19.5 VUEW045H01
     K16W01O  C2016 11 19.43963503 13 14.31 +12 56 57.2          19.4 VUEW045H01
     K16W01O KC2016 11 19.88020 03 12 10.82 +13 02 03.3          19.5 V EW045L04
     K16W01O KC2016 11 19.89638 03 12 08.33 +13 02 13.9          19.6 V EW045L04
     K16W01O KC2016 11 19.90604 03 12 06.86 +13 02 21.2          19.8 V EW045L04
     K16W01O KC2016 11 20.21907603 11 20.63 +13 06 04.2          19.9 VuEW045H21
     K16W01O KC2016 11 20.22343303 11 19.96 +13 06 07.2          20.0 VuEW045H21
     K16W01O KC2016 11 20.22772303 11 19.30 +13 06 10.6          20.1 VuEW045H21
     K16W01O KC2016 11 20.23234303 11 18.59 +13 06 13.8          19.9 VuEW045H21
     K16W01O  C2016 11 20.37996 03 10 56.14 +13 08 00.4          18.9 VqEW045G96
     K16W01O  C2016 11 20.38333 03 10 55.64 +13 08 02.8          18.6 VqEW045G96
     K16W01O  C2016 11 20.38617 03 10 55.23 +13 08 05.0          18.6 VqEW045G96
     K16W01O  C2016 11 20.38928 03 10 54.72 +13 08 07.2          18.9 VqEW045G96
     K16W01O KC2016 11 20.38978 03 10 54.62 +13 08 07.8          19.9 RoEW045291
     K16W01O KC2016 11 20.39156 03 10 54.35 +13 08 09.0          19.8 RoEW045291
     K16W01O KC2016 11 20.39334 03 10 54.11 +13 08 10.2          19.8 RoEW045291
     K16W01O KC2016 11 21.22445 03 08 49.59 +13 18 13.5          19.8 RqEW045850
     K16W01O KC2016 11 21.25647703 08 44.62 +13 18 34.9          19.5 VuEW045H21
     K16W01O KC2016 11 21.26168503 08 43.81 +13 18 38.8          19.6 VuEW045H21
     K16W01O KC2016 11 21.26272 03 08 43.56 +13 18 40.4          20.2 RqEW045850
     K16W01O KC2016 11 21.26699103 08 42.97 +13 18 42.7          19.7 VuEW045H21
     K16W01O KC2016 11 21.28166 03 08 40.62 +13 18 54.8          20.2 RqEW045850
     K16W01O KC2016 11 21.30039 03 08 37.67 +13 19 08.3          20.0 RqEW045850
     K16W01O KC2016 11 21.31915 03 08 34.75 +13 19 21.3          19.8 RqEW045850
     K16W01O  C2016 11 21.83358 03 07 17.10 +13 25 41.3                qEW045246
     K16W01O  C2016 11 21.83440 03 07 16.93 +13 25 41.9                qEW045246
     K16W01O  C2016 11 21.83519 03 07 16.84 +13 25 42.8                qEW045246
     K16W01O KC2016 11 21.87523 03 07 10.60 +13 26 14.9          19.4 VUEW045958
     K16W01O KC2016 11 21.88223 03 07 09.52 +13 26 20.0          19.9 VUEW045958
     K16W01O KC2016 11 21.88923 03 07 08.41 +13 26 25.1          19.9 VUEW045958
     K16W01O KC2016 11 21.94586 03 06 59.13 +13 27 06.8          19.5 RoEW045K88
     K16W01O KC2016 11 21.94953 03 06 58.57 +13 27 09.6          19.4 RoEW045K88
     K16W01O KC2016 11 21.95319 03 06 57.97 +13 27 12.2          19.3 RoEW045K88
 
Observer details:
246 Klet Observatory-KLENOT.  Observers M. Tichy, J. Ticha.  Measurer M. Tichy.
    1.06-m KLENOT Telescope + CCD.
291 LPL/Spacewatch II.  Observer T. H. Bressi.  1.8-m f/2.7 reflector + CCD.
850 Cordell-Lorenz Observatory, Sewanee.  Observers D. T. Durig, V. L. Hinshaw,
    J. S. Haight.  0.3-m f/9.4 Schmidt-Cassegrain + CCD.
958 Observatoire de Dax.  Observers P. Dupouy, J. B. de Vanssay.  Measurer
    P. Dupouy.  0.43-m f/2.7 reflector + CCD.
F51 Pan-STARRS 1, Haleakala.  Observers B. Gibson, T. Goggia, S. Kahale,
    A. Schultz, M. Willman.  Measurers K. Chambers, S. Chastel, L. Denneau,
    H. Flewelling, M. Huber, E. Lilly, E. Magnier, R. Wainscoat, C. Waters,
    R. Weryk.  1.8-m Ritchey-Chretien + CCD.
G96 Mt. Lemmon Survey.  Observer G. J. Leonard.  Measurers E. J. Christensen,
    D. C. Fuls, A. R. Gibbs, A. D. Grauer, J. A. Johnson, R. A. Kowalski,
    S. M. Larson, G. J. Leonard, R. G. Matheny, R. L. Seaman, F. C. Shelly.
    1.5-m reflector + 10K CCD.
H01 Magdalena Ridge Observatory, Socorro.  Observers W. H. Ryan, E. V. Ryan.
    Measurer W. H. Ryan.  2.4-m f/8.9 reflector + CCD.
H21 Astronomical Research Observatory, Westfield.  Observer R. Holmes.
    Measurers S. Foglia, L. Buzzi, T. Linder, R. Holmes.  0.61-m f/4.5
    astrograph + CCD.
K88 GINOP-KHK, Piszkesteto.  Observers B. Cseh, K. Sarneczky.  Measurer
    K. Sarneczky.  0.60-m Schmidt + CCD.
L04 ROASTERR-1 Observatory, Cluj-Napoca.  Observer L. Hudin.  0.3-m f/5.0
    reflector + CCD.
 
Orbital elements:
2016 WO1                                                 Earth MOID = 0.1683 AU
Epoch 2017 Feb. 16.0 TT = JDT 2457800.5                 MPC
M 357.98769              (2000.0)            P               Q
n   0.28935421     Peri.   87.23573     -0.82043270     -0.52629399
a   2.2638597      Node    60.91447     +0.36778324     -0.78495934
e   0.6001090      Incl.   14.81092     +0.43775069     -0.32688449
P   3.41           H   19.8           G   0.15           U   7
Residuals in seconds of arc
161012 F51  0.0   0.1+    161119 L04  0.1+  0.3+    161121 H21  0.2+  0.2-
161012 F51  0.0   0.0     161119 L04  0.3-  0.5-    161121 850  0.3-  0.5-
161012 F51  0.1+  0.0     161119 L04  0.3-  0.0     161121 H21  0.2+  0.2-
161012 F51  0.1+  0.0     161120 H21  0.3+  0.3-    161121 850  0.3+  0.1+
161119 G96  0.1+  0.3+    161120 H21  0.3+  0.4-    161121 850  0.3+  0.0
161119 G96  0.3+  0.0     161120 H21  0.3+  0.1-    161121 850  0.6+  0.6-
161119 G96  0.1-  0.3+    161120 H21  0.4+  0.1-    161121 246  1.0+  0.3-
161119 G96  0.5-  0.7+    161120 G96  0.0   0.1-    161121 246  0.4+  0.3-
161119 H01  0.1+  0.3-    161120 G96  0.3+  0.0     161121 246  0.9+  0.0
161119 H01  0.1+  0.2-    161120 G96  0.7+  0.2+    161121 958  0.9-  0.8+
161119 G96  0.1+  0.2+    161120 G96  0.2+  0.2+    161121 958  0.4-  0.6+
161119 G96  0.0   0.5-    161120 291  0.2-  0.3+    161121 958  0.4-  0.3+
161119 G96  0.5+  0.2+    161120 291  0.2-  0.2+    161121 K88  0.2+  0.3+
161119 G96  0.1+  0.3-    161120 291  0.3+  0.2+    161121 K88  0.6+  0.4+
161119 H01  0.1+  0.2-    161121 850  0.4-  0.6+    161121 K88  0.3+  0.2+
161119 H01  0.1+  0.2-    161121 H21  0.1+  0.3-

Ephemeris:
2016 WO1                 a,e,i = 2.26, 0.60, 15                  q = 0.9053
Date    TT    R. A. (2000) Decl.     Delta      r     Elong.  Phase     V
2016 10 23    03 54 42.9 +09 47 18   0.8073  1.7395   149.5    16.9    21.4
...
2016 11 07    03 38 18.3 +11 02 55   0.6332  1.6143   167.0     7.9    20.4
...
2016 11 15    03 23 23.4 +12 09 44   0.5594  1.5463   173.7     4.0    19.9
...
2016 11 21    03 09 23.9 +13 15 34   0.5135  1.4950   168.9     7.3    19.8
2016 11 22    03 06 51.1 +13 27 57   0.5067  1.4865   167.6     8.2    19.8
2016 11 23    03 04 15.0 +13 40 43   0.5001  1.4779   166.2     9.2    19.8
...
2016 11 29    02 47 38.0 +15 05 58   0.4652  1.4264   157.1    15.6    19.8
...
2016 12 07    02 23 50.1 +17 21 45   0.4308  1.3580   144.1    25.1    19.8
...
2016 12 22    01 40 38.1 +22 36 17   0.3948  1.2321   120.5    43.4    19.9

A. U. Tomatic                (C) Copyright 2016 MPC           M.P.E.C. 2016-W45




More information about the Iaude mailing list